Regional Weather Roundup
Issued by NWS

Home | Current Version | Previous Version | Text Only | Print | Product List | Glossary On
Versions: 1 2 3 4 5 6 7 8 9 10 11 12 13 14 15 16 17 18 19 20 21 22 23 24 25 26 27 28 29 30 31 32 33 34 35 36 37 38 39 40 41 42 43 44 45 46 47 48 49 50
000
ASCA42 TJSJ 220511
RWRPR
PUERTO RICO/U.S. VIRGIN ISLANDS HOURLY WEATHER ROUNDUP
NATIONAL WEATHER SERVICE SAN JUAN PR
100 AM AST MON DEC 22 2014

PRZ001-004-220600-
PUERTO RICO

CITY           SKY/WX    TMP DP  RH WIND       PRES   REMARKS
SAN JUAN LMM   PTCLDY    75  68  78 CALM      30.06F
AGUADILLA      CLEAR     70  63  78 E7        30.08S
CEIBA          PTCLDY    77  68  73 NE7       30.08F
$$

PRZ006-007-220600-
U.S. VIRGIN ISLANDS

CITY           SKY/WX    TMP DP  RH WIND       PRES   REMARKS
CHRISTIANSTED  PTCLDY    75  72  88 N6        30.05
$$

HOURLY WEATHER ROUNDUP FOR THE NEWS MEDIA

CITY           SKY/WX    TMP DP  RH WIND       PRES   REMARKS
MIAMI          MOCLDY    72  66  81 SE3       30.05R
ORLANDO        LGT RAIN  67  66  97 N8        30.05S FOG
NEW YORK       CLOUDY    37  30  75 N9        30.33F WCI  30
NEWARK         CLOUDY    34  30  85 N9        30.34S WCI  27
CHICAGO        CLOUDY    32  27  81 S10       30.03S WCI  24
HARTFORD       CLOUDY    34  32  92 N6        30.33S WCI  29
BOSTON         CLOUDY    34  26  72 N6        30.37S WCI  29
DALLAS         CLOUDY    52  48  86 S16       29.77F
PHILADELPHIA   PTCLDY    30  22  72 NW6       30.35S WCI  24


USA.gov is the U.S. government's official web portal to all federal, state and local government web resources and services.